contact:dominique.lefevre@mio.osupytheas.fr, maurice.libes@osupytheas.fr, didier.mallarino@osupytheas.fr
Project:EMSO http://www.emso-fr.org/EMSO-France
Depth: 2436.0 m
Title:EMSO Ligure Ouest : Data MII capteur AQUADOPP
Date,Latitude,Longitude,X_East,Y_North,Z_Up,Amplitude_X,Amplitude_Y,Amplitude_Z,Batterie,SoundSpeed,Heading,Pitch,Roll,Pressure,TIS,Speed,Direction
, degrees North, degrees East, m.s-1, m.s-1,m.s-1, 1, 1, 1, Volt, m.s-1, degree, degree, degree, dbar, degree_C, m.s-1, degree
2020-06-30T00:04:03,42.805,6.029,-0.078,0.016,-0.044,103.0,107.0,101.0,13.4,1505.3,328.1,-0.7,1.8,2470.377,13.31,0.079,281.6
2020-06-30T00:07:03,42.805,6.029,-0.059,0.015,-0.049,104.0,105.0,102.0,13.3,1505.3,325.5,-0.7,1.9,2470.396,13.31,0.06,284.3
2020-06-30T00:10:03,42.805,6.029,-0.062,0.01,0.0,102.0,106.0,103.0,13.4,1505.3,322.8,-0.7,1.8,2470.365,13.32,0.062,279.2
2020-06-30T00:13:03,42.805,6.029,-0.051,0.013,-0.034,103.0,106.0,102.0,13.4,1505.3,323.2,-0.7,1.8,2470.38,13.32,0.052,284.3
2020-06-30T00:16:03,42.805,6.029,-0.063,0.005,-0.024,104.0,105.0,103.0,13.4,1505.3,327.9,-0.7,1.8,2470.34,13.32,0.063,274.5
2020-06-30T00:19:03,42.805,6.029,-0.067,0.007,-0.02,104.0,105.0,101.0,13.4,1505.3,327.0,-0.7,1.8,2470.342,13.33,0.067,276.0
2020-06-30T00:22:03,42.805,6.029,-0.064,0.002,0.0,103.0,105.0,101.0,13.4,1505.3,323.5,-0.7,1.8,2470.357,13.33,0.064,271.8
2020-06-30T00:25:03,42.805,6.029,-0.048,-0.001,-0.009,104.0,105.0,101.0,13.4,1505.3,327.9,-0.7,1.8,2470.341,13.33,0.048,268.8
2020-06-30T00:28:03,42.805,6.029,-0.058,0.004,-0.007,102.0,106.0,101.0,13.4,1505.3,324.2,-0.7,1.8,2470.384,13.33,0.058,273.9
2020-06-30T00:31:03,42.805,6.029,-0.064,0.003,-0.025,103.0,106.0,101.0,13.4,1505.3,323.9,-0.7,1.8,2470.375,13.33,0.064,272.7
2020-06-30T00:34:03,42.805,6.029,-0.063,0.01,-0.02,104.0,106.0,101.0,13.4,1505.3,324.5,-0.7,1.8,2470.358,13.33,0.063,279.0
2020-06-30T00:37:03,42.805,6.029,-0.042,0.016,-0.016,104.0,106.0,102.0,13.4,1505.3,326.2,-0.7,1.8,2470.335,13.33,0.044,290.9
2020-06-30T00:40:03,42.805,6.029,-0.025,0.0,-0.002,104.0,106.0,102.0,13.4,1505.3,326.3,-0.7,1.8,2470.358,13.33,0.025,270.0
2020-06-30T00:43:03,42.805,6.029,-0.07,0.015,-0.01,104.0,107.0,101.0,13.4,1505.3,327.4,-0.7,1.8,2470.361,13.33,0.071,282.1
2020-06-30T00:46:03,42.805,6.029,-0.055,-0.003,-0.012,103.0,106.0,102.0,13.4,1505.3,327.0,-0.7,1.8,2470.353,13.33,0.055,266.9
2020-06-30T00:49:03,42.805,6.029,-0.029,0.014,-0.001,104.0,107.0,102.0,13.4,1505.3,327.6,-0.7,1.8,2470.344,13.33,0.032,295.8
2020-06-30T00:52:03,42.805,6.029,-0.029,0.0,-0.009,104.0,106.0,102.0,13.3,1505.3,326.6,-0.7,1.9,2470.355,13.33,0.028,270.0
2020-06-30T00:55:03,42.805,6.029,-0.023,-0.002,0.035,105.0,107.0,103.0,13.4,1505.3,327.7,-0.7,1.9,2470.312,13.33,0.023,265.0
2020-06-30T00:58:03,42.805,6.029,-0.067,0.0,-0.048,105.0,108.0,102.0,13.4,1505.3,324.8,-0.7,1.8,2470.383,13.33,0.066,270.0
2020-06-30T01:04:03,42.805,6.029,-0.069,0.012,0.023,105.0,108.0,105.0,13.4,1505.3,327.1,-0.8,1.8,2470.394,13.31,0.07,279.9
2020-06-30T01:07:03,42.805,6.029,-0.067,0.001,-0.017,104.0,106.0,101.0,13.3,1505.3,325.7,-0.7,1.8,2470.372,13.32,0.067,270.9
2020-06-30T01:10:03,42.805,6.029,-0.055,0.006,0.003,104.0,107.0,101.0,13.4,1505.3,326.2,-0.7,1.8,2470.406,13.32,0.055,276.2
2020-06-30T01:13:03,42.805,6.029,-0.046,0.022,-0.007,104.0,107.0,101.0,13.4,1505.3,328.3,-0.7,1.8,2470.384,13.32,0.05,295.6
2020-06-30T01:16:03,42.805,6.029,-0.078,0.012,-0.01,103.0,107.0,102.0,13.4,1505.3,325.4,-0.7,1.8,2470.371,13.32,0.078,278.7
2020-06-30T01:19:03,42.805,6.029,-0.06,-0.004,-0.03,104.0,107.0,101.0,13.4,1505.3,326.4,-0.7,1.8,2470.422,13.32,0.06,266.2
2020-06-30T01:22:03,42.805,6.029,-0.05,0.027,0.001,104.0,107.0,101.0,13.4,1505.3,324.0,-0.7,1.8,2470.384,13.33,0.056,298.4
2020-06-30T01:25:03,42.805,6.029,-0.071,0.024,-0.021,104.0,105.0,101.0,13.4,1505.3,324.3,-0.7,1.8,2470.346,13.33,0.074,288.7
2020-06-30T01:28:03,42.805,6.029,-0.033,0.004,-0.03,104.0,107.0,101.0,13.4,1505.3,324.0,-0.7,1.8,2470.409,13.33,0.033,276.9
2020-06-30T01:31:03,42.805,6.029,-0.048,0.004,0.002,104.0,108.0,101.0,13.3,1505.3,324.1,-0.7,1.8,2470.39,13.33,0.048,274.8
2020-06-30T01:34:03,42.805,6.029,-0.081,0.01,-0.046,104.0,107.0,100.0,13.4,1505.3,326.7,-0.7,1.8,2470.43,13.33,0.081,277.0
2020-06-30T01:37:03,42.805,6.029,-0.039,0.011,0.037,104.0,105.0,101.0,13.4,1505.3,326.3,-0.7,1.8,2470.368,13.33,0.04,285.7
2020-06-30T01:40:03,42.805,6.029,-0.057,0.007,0.012,103.0,106.0,102.0,13.4,1505.3,325.3,-0.7,1.8,2470.39,13.33,0.057,277.0
2020-06-30T01:43:03,42.805,6.029,-0.041,0.016,0.013,105.0,106.0,102.0,13.4,1505.3,325.1,-0.7,1.8,2470.381,13.33,0.044,291.3
2020-06-30T01:46:03,42.805,6.029,-0.029,0.016,0.004,104.0,106.0,102.0,13.4,1505.3,326.0,-0.7,1.8,2470.366,13.33,0.033,298.9
2020-06-30T01:49:03,42.805,6.029,-0.059,0.005,-0.025,104.0,105.0,101.0,13.4,1505.3,328.0,-0.7,1.8,2470.367,13.33,0.059,274.8
2020-06-30T01:52:03,42.805,6.029,-0.066,0.0,-0.025,104.0,107.0,101.0,13.3,1505.3,325.9,-0.7,1.8,2470.371,13.33,0.065,270.0
2020-06-30T01:55:03,42.805,6.029,-0.044,-0.008,-0.007,105.0,109.0,101.0,13.4,1505.3,326.9,-0.7,1.8,2470.391,13.33,0.044,259.7
2020-06-30T01:58:03,42.805,6.029,-0.067,-0.002,0.005,104.0,107.0,101.0,13.4,1505.3,324.7,-0.7,1.8,2470.42,13.33,0.067,268.3
2020-06-30T02:04:03,42.805,6.029,-0.068,0.018,-0.01,103.0,106.0,102.0,13.4,1505.3,327.2,-0.7,1.8,2470.416,13.31,0.07,284.8
2020-06-30T02:07:03,42.805,6.029,-0.061,-0.002,-0.004,103.0,106.0,101.0,13.4,1505.3,327.1,-0.7,1.8,2470.426,13.31,0.061,268.1
2020-06-30T02:10:03,42.805,6.029,-0.033,0.016,-0.003,104.0,106.0,102.0,13.4,1505.3,327.9,-0.7,1.8,2470.477,13.32,0.036,295.9
2020-06-30T02:13:03,42.805,6.029,-0.049,-0.003,-0.04,105.0,107.0,100.0,13.4,1505.3,328.0,-0.7,1.8,2470.387,13.32,0.049,266.5
2020-06-30T02:16:03,42.805,6.029,-0.061,0.007,-0.033,103.0,107.0,101.0,13.4,1505.3,325.8,-0.7,1.8,2470.364,13.32,0.061,276.5
2020-06-30T02:19:03,42.805,6.029,-0.066,0.0,-0.004,104.0,108.0,101.0,13.4,1505.3,326.7,-0.7,1.8,2470.389,13.33,0.065,270.0
2020-06-30T02:22:03,42.805,6.029,-0.06,0.005,-0.022,105.0,107.0,101.0,13.4,1505.3,323.7,-0.7,1.8,2470.4,13.33,0.06,274.8
2020-06-30T02:25:03,42.805,6.029,-0.046,0.0,0.006,103.0,107.0,101.0,13.4,1505.3,324.1,-0.7,1.8,2470.418,13.33,0.046,270.0
2020-06-30T02:28:03,42.805,6.029,-0.045,-0.012,-0.013,103.0,106.0,101.0,13.4,1505.3,323.7,-0.7,1.8,2470.4,13.33,0.046,255.1
2020-06-30T02:31:03,42.805,6.029,-0.075,0.003,-0.034,103.0,106.0,102.0,13.3,1505.3,327.3,-0.7,1.8,2470.388,13.33,0.075,272.3
2020-06-30T02:34:03,42.805,6.029,-0.034,-0.005,0.007,104.0,106.0,103.0,13.4,1505.3,325.3,-0.7,1.9,2470.38,13.33,0.034,261.6
2020-06-30T02:37:03,42.805,6.029,-0.04,0.001,-0.019,103.0,107.0,101.0,13.4,1505.3,325.0,-0.7,1.8,2470.394,13.33,0.04,271.4
2020-06-30T02:40:03,42.805,6.029,-0.062,0.005,-0.041,103.0,105.0,102.0,13.4,1505.3,324.5,-0.7,1.8,2470.43,13.33,0.062,274.6
2020-06-30T02:43:03,42.805,6.029,-0.041,0.021,-0.005,103.0,107.0,102.0,13.4,1505.3,327.1,-0.7,1.8,2470.397,13.33,0.046,297.1
2020-06-30T02:46:03,42.805,6.029,-0.05,0.018,0.016,103.0,107.0,101.0,13.4,1505.3,323.9,-0.7,1.8,2470.407,13.33,0.053,289.8
2020-06-30T02:49:03,42.805,6.029,-0.029,0.023,0.0,104.0,106.0,101.0,13.4,1505.3,325.6,-0.7,1.8,2470.348,13.33,0.037,308.4
2020-06-30T02:52:03,42.805,6.029,-0.041,0.006,-0.002,104.0,105.0,101.0,13.3,1505.3,327.6,-0.7,1.8,2470.365,13.33,0.041,278.3
2020-06-30T02:55:03,42.805,6.029,-0.037,0.005,-0.027,104.0,105.0,101.0,13.3,1505.3,327.1,-0.7,1.8,2470.357,13.33,0.037,277.7
2020-06-30T02:58:03,42.805,6.029,-0.05,0.017,-0.026,103.0,107.0,101.0,13.4,1505.3,327.2,-0.7,1.8,2470.417,13.33,0.052,288.8
2020-06-30T03:04:03,42.805,6.029,-0.069,0.007,-0.04,104.0,106.0,102.0,13.4,1505.3,323.0,-0.7,1.8,2470.409,13.31,0.069,275.8
2020-06-30T03:07:03,42.805,6.029,-0.022,0.001,0.035,109.0,106.0,101.0,13.4,1505.3,325.8,-0.7,1.8,2470.45,13.31,0.022,272.6
2020-06-30T03:10:03,42.805,6.029,-0.027,-0.019,0.0,105.0,106.0,102.0,13.4,1505.3,324.4,-0.7,1.8,2470.45,13.32,0.033,234.9
2020-06-30T03:13:03,42.805,6.029,-0.073,0.02,-0.029,104.0,106.0,102.0,13.3,1505.3,328.4,-0.7,1.8,2470.369,13.32,0.075,285.3
2020-06-30T03:16:03,42.805,6.029,-0.051,0.009,0.007,103.0,108.0,100.0,13.4,1505.3,325.8,-0.7,1.8,2470.4,13.32,0.051,280.0
2020-06-30T03:19:03,42.805,6.029,-0.018,-0.005,0.013,103.0,106.0,101.0,13.3,1505.3,326.1,-0.7,1.8,2470.385,13.33,0.018,254.5
2020-06-30T03:22:03,42.805,6.029,-0.058,0.007,0.0,104.0,105.0,101.0,13.4,1505.3,323.8,-0.7,1.8,2470.369,13.33,0.058,276.9
2020-06-30T03:25:03,42.805,6.029,-0.024,0.009,-0.012,104.0,106.0,102.0,13.4,1505.3,327.1,-0.7,1.8,2470.365,13.33,0.025,290.6
2020-06-30T03:28:03,42.805,6.029,-0.061,0.01,0.005,105.0,106.0,101.0,13.4,1505.3,327.1,-0.7,1.8,2470.407,13.33,0.061,279.3
2020-06-30T03:31:03,42.805,6.029,-0.053,0.021,-0.016,103.0,108.0,101.0,13.4,1505.3,326.9,-0.7,1.8,2470.413,13.33,0.057,291.6
2020-06-30T03:34:03,42.805,6.029,-0.059,-0.002,-0.026,104.0,107.0,103.0,13.4,1505.3,324.2,-0.7,1.8,2470.369,13.33,0.059,268.1
2020-06-30T03:37:03,42.805,6.029,-0.053,0.0,-0.023,103.0,107.0,102.0,13.4,1505.3,324.9,-0.7,1.9,2470.389,13.33,0.053,270.0
2020-06-30T03:40:03,42.805,6.029,-0.033,0.024,0.053,103.0,106.0,100.0,13.4,1505.3,326.3,-0.7,1.8,2470.401,13.33,0.04,306.0
2020-06-30T03:43:03,42.805,6.029,-0.061,-0.008,-0.027,104.0,107.0,102.0,13.4,1505.3,328.1,-0.7,1.8,2470.394,13.33,0.061,262.5
2020-06-30T03:46:03,42.805,6.029,-0.069,0.011,0.004,103.0,107.0,102.0,13.4,1505.3,325.2,-0.7,1.8,2470.412,13.33,0.069,279.1
2020-06-30T03:49:03,42.805,6.029,-0.066,0.0,-0.011,104.0,108.0,101.0,13.4,1505.3,324.5,-0.7,1.8,2470.361,13.33,0.065,270.0
2020-06-30T03:52:03,42.805,6.029,-0.056,0.013,-0.023,103.0,107.0,102.0,13.4,1505.3,325.4,-0.7,1.8,2470.417,13.33,0.057,283.1
2020-06-30T03:55:03,42.805,6.029,-0.007,0.018,0.019,103.0,106.0,101.0,13.4,1505.3,328.5,-0.7,1.8,2470.401,13.33,0.019,338.8
2020-06-30T03:58:03,42.805,6.029,-0.044,-0.015,-0.01,104.0,106.0,101.0,13.4,1505.3,322.7,-0.7,1.8,2470.39,13.33,0.046,251.2
2020-06-30T04:04:03,42.805,6.029,-0.046,0.011,-0.001,103.0,106.0,101.0,13.4,1505.3,325.2,-0.8,1.9,2470.405,13.31,0.047,283.4
2020-06-30T04:07:03,42.805,6.029,-0.081,0.005,-0.015,104.0,107.0,102.0,13.3,1505.3,325.4,-0.7,1.8,2470.372,13.31,0.081,273.5
2020-06-30T04:10:03,42.805,6.029,-0.037,-0.01,0.021,104.0,107.0,101.0,13.3,1505.3,328.5,-0.7,1.8,2470.391,13.32,0.038,254.9
2020-06-30T04:13:03,42.805,6.029,-0.037,-0.002,-0.005,104.0,106.0,101.0,13.4,1505.3,327.8,-0.7,1.8,2470.385,13.32,0.037,266.9
2020-06-30T04:16:03,42.805,6.029,-0.052,0.017,0.019,104.0,107.0,101.0,13.4,1505.3,326.0,-0.7,1.8,2470.408,13.32,0.054,288.1
2020-06-30T04:19:03,42.805,6.029,-0.04,0.001,-0.028,104.0,106.0,101.0,13.3,1505.3,324.6,-0.7,1.8,2470.385,13.33,0.04,271.4
2020-06-30T04:22:03,42.805,6.029,-0.06,0.005,0.012,104.0,106.0,101.0,13.4,1505.3,326.3,-0.7,1.8,2470.424,13.33,0.06,274.8
2020-06-30T04:25:03,42.805,6.029,-0.04,0.005,-0.023,103.0,106.0,101.0,13.4,1505.3,324.6,-0.7,1.9,2470.382,13.33,0.04,277.1
2020-06-30T04:28:03,42.805,6.029,-0.074,0.013,0.004,103.0,107.0,101.0,13.4,1505.3,328.2,-0.7,1.8,2470.367,13.33,0.075,280.0
2020-06-30T04:31:03,42.805,6.029,-0.052,-0.001,-0.031,105.0,106.0,100.0,13.4,1505.3,325.4,-0.7,1.8,2470.368,13.33,0.052,268.9
2020-06-30T04:34:03,42.805,6.029,-0.048,0.006,-0.01,104.0,106.0,101.0,13.3,1505.3,328.2,-0.7,1.8,2470.34,13.33,0.048,277.1
2020-06-30T04:37:03,42.805,6.029,-0.048,0.012,-0.007,104.0,105.0,102.0,13.4,1505.3,324.0,-0.7,1.8,2470.353,13.33,0.049,284.0
2020-06-30T04:40:03,42.805,6.029,-0.027,-0.007,0.011,105.0,106.0,102.0,13.4,1505.3,325.3,-0.7,1.8,2470.325,13.33,0.027,255.5
2020-06-30T04:43:03,42.805,6.029,-0.052,-0.015,0.003,104.0,107.0,101.0,13.4,1505.3,324.8,-0.7,1.8,2470.401,13.33,0.054,253.9
2020-06-30T04:46:03,42.805,6.029,-0.022,0.002,-0.028,105.0,107.0,102.0,13.4,1505.3,326.0,-0.7,1.8,2470.303,13.33,0.022,275.2
2020-06-30T04:49:03,42.805,6.029,-0.045,-0.018,-0.02,105.0,106.0,102.0,13.4,1505.3,325.8,-0.7,1.8,2470.343,13.33,0.048,248.2
2020-06-30T04:52:03,42.805,6.029,-0.052,0.022,-0.002,104.0,107.0,102.0,13.3,1505.3,326.8,-0.7,1.8,2470.352,13.33,0.056,292.9
2020-06-30T04:55:03,42.805,6.029,-0.066,0.014,0.015,104.0,107.0,103.0,13.3,1505.3,328.7,-0.7,1.9,2470.409,13.33,0.067,282.0
2020-06-30T04:58:03,42.805,6.029,-0.05,0.012,-0.008,104.0,107.0,101.0,13.3,1505.3,324.7,-0.7,1.8,2470.326,13.33,0.051,283.5
2020-06-30T05:04:03,42.805,6.029,-0.054,0.015,0.007,103.0,106.0,102.0,13.4,1505.3,326.4,-0.8,1.8,2470.358,13.31,0.056,285.5
2020-06-30T05:07:03,42.805,6.029,-0.021,0.028,0.024,104.0,107.0,101.0,13.3,1505.3,326.3,-0.7,1.8,2470.39,13.31,0.035,323.1
2020-06-30T05:10:03,42.805,6.029,-0.065,0.0,-0.007,104.0,105.0,101.0,13.4,1505.3,323.5,-0.7,1.9,2470.35,13.32,0.064,270.0
2020-06-30T05:13:03,42.805,6.029,-0.057,-0.018,-0.019,104.0,107.0,101.0,13.4,1505.3,323.1,-0.7,1.8,2470.38,13.32,0.059,252.5
2020-06-30T05:16:03,42.805,6.029,-0.041,0.0,-0.023,104.0,106.0,102.0,13.3,1505.3,327.6,-0.7,1.8,2470.355,13.33,0.041,270.0
2020-06-30T05:19:03,42.805,6.029,-0.03,0.005,0.007,104.0,105.0,101.0,13.4,1505.3,328.2,-0.7,1.8,2470.342,13.33,0.03,279.5
2020-06-30T05:22:03,42.805,6.029,-0.053,0.006,0.014,105.0,107.0,103.0,13.4,1505.3,326.9,-0.7,1.8,2470.382,13.33,0.053,276.5
2020-06-30T05:25:03,42.805,6.029,-0.038,-0.012,-0.032,103.0,106.0,101.0,13.4,1505.3,324.0,-0.7,1.8,2470.361,13.33,0.039,252.5
2020-06-30T05:28:03,42.805,6.029,-0.067,0.002,-0.03,104.0,107.0,101.0,13.4,1505.3,326.8,-0.7,1.8,2470.36,13.33,0.067,271.7
2020-06-30T05:31:03,42.805,6.029,-0.057,-0.006,-0.031,104.0,105.0,102.0,13.4,1505.3,324.3,-0.7,1.8,2470.355,13.33,0.057,264.0
2020-06-30T05:34:03,42.805,6.029,-0.049,-0.01,0.005,102.0,107.0,101.0,13.3,1505.3,327.6,-0.7,1.9,2470.356,13.33,0.05,258.5
2020-06-30T05:37:03,42.805,6.029,-0.062,0.009,0.019,105.0,106.0,101.0,13.4,1505.3,326.9,-0.7,1.8,2470.363,13.33,0.062,278.3
2020-06-30T05:40:03,42.805,6.029,-0.054,-0.004,-0.008,104.0,106.0,101.0,13.4,1505.3,324.4,-0.7,1.8,2470.343,13.33,0.054,265.8
2020-06-30T05:43:03,42.805,6.029,-0.051,0.02,0.017,103.0,107.0,102.0,13.4,1505.3,326.9,-0.7,1.8,2470.289,13.33,0.054,291.4
2020-06-30T05:46:03,42.805,6.029,-0.07,-0.007,-0.01,103.0,107.0,102.0,13.4,1505.3,325.7,-0.7,1.8,2470.32,13.33,0.07,264.3
2020-06-30T05:49:03,42.805,6.029,-0.062,0.004,-0.022,105.0,105.0,101.0,13.3,1505.3,327.1,-0.7,1.9,2470.312,13.33,0.062,273.7
2020-06-30T05:52:03,42.805,6.029,-0.06,0.0,-0.009,104.0,106.0,102.0,13.4,1505.3,327.3,-0.7,1.8,2470.338,13.33,0.06,270.0
2020-06-30T05:55:03,42.805,6.029,-0.044,-0.002,0.011,104.0,106.0,101.0,13.4,1505.3,326.3,-0.7,1.8,2470.331,13.33,0.044,267.4
2020-06-30T05:58:03,42.805,6.029,-0.043,0.0,-0.004,104.0,107.0,102.0,13.4,1505.3,324.5,-0.7,1.8,2470.342,13.33,0.043,270.0
2020-06-30T06:04:03,42.805,6.029,-0.041,0.005,0.007,104.0,106.0,102.0,13.4,1505.3,323.8,-0.7,1.8,2470.36,13.31,0.041,277.0
2020-06-30T06:07:03,42.805,6.029,-0.059,-0.003,-0.004,105.0,106.0,102.0,13.4,1505.3,325.3,-0.7,1.8,2470.303,13.31,0.059,267.1
2020-06-30T06:10:03,42.805,6.029,-0.054,0.002,-0.007,103.0,107.0,102.0,13.4,1505.3,323.1,-0.7,1.8,2470.345,13.32,0.054,272.1
2020-06-30T06:13:03,42.805,6.029,-0.054,0.0,0.024,103.0,108.0,101.0,13.4,1505.3,324.8,-0.7,1.8,2470.285,13.32,0.053,270.0
2020-06-30T06:16:03,42.805,6.029,-0.056,0.014,0.001,104.0,105.0,101.0,13.4,1505.3,324.0,-0.7,1.9,2470.308,13.32,0.057,284.0
2020-06-30T06:19:03,42.805,6.029,-0.054,0.0,0.003,103.0,106.0,101.0,13.4,1505.3,327.5,-0.7,1.8,2470.361,13.33,0.053,270.0
2020-06-30T06:22:03,42.805,6.029,-0.064,0.0,-0.008,103.0,106.0,101.0,13.3,1505.3,325.4,-0.7,1.8,2470.328,13.33,0.063,270.0
2020-06-30T06:25:03,42.805,6.029,-0.064,-0.002,-0.007,104.0,108.0,101.0,13.4,1505.3,325.9,-0.7,1.9,2470.346,13.33,0.064,268.2
2020-06-30T06:28:03,42.805,6.029,-0.038,-0.013,0.014,104.0,106.0,101.0,13.4,1505.3,326.4,-0.7,1.8,2470.308,13.33,0.04,251.1
2020-06-30T06:31:03,42.805,6.029,-0.065,0.002,-0.008,104.0,107.0,101.0,13.3,1505.3,326.9,-0.7,1.8,2470.305,13.33,0.065,271.8
2020-06-30T06:34:03,42.805,6.029,-0.047,0.02,0.001,104.0,106.0,101.0,13.3,1505.3,324.8,-0.7,1.9,2470.297,13.33,0.051,293.0
2020-06-30T06:37:03,42.805,6.029,-0.064,0.005,-0.011,104.0,107.0,102.0,13.4,1505.3,325.9,-0.7,1.8,2470.301,13.33,0.064,274.5
2020-06-30T06:40:03,42.805,6.029,-0.052,-0.008,-0.022,104.0,106.0,102.0,13.4,1505.3,325.0,-0.7,1.8,2470.305,13.33,0.052,261.3
2020-06-30T06:43:03,42.805,6.029,-0.045,0.014,-0.003,103.0,106.0,102.0,13.4,1505.3,325.6,-0.7,1.8,2470.273,13.33,0.047,287.3
2020-06-30T06:46:03,42.805,6.029,-0.05,0.017,0.004,103.0,106.0,102.0,13.4,1505.3,325.3,-0.7,1.8,2470.317,13.33,0.052,288.8
2020-06-30T06:49:03,42.805,6.029,-0.048,0.006,0.008,102.0,106.0,101.0,13.4,1505.3,324.2,-0.7,1.8,2470.294,13.33,0.048,277.1
2020-06-30T06:52:03,42.805,6.029,-0.034,0.006,-0.008,105.0,105.0,101.0,13.3,1505.3,325.9,-0.7,1.8,2470.276,13.33,0.034,280.0
2020-06-30T06:55:03,42.805,6.029,-0.046,0.003,0.011,103.0,107.0,102.0,13.3,1505.3,324.8,-0.7,1.8,2470.322,13.33,0.046,273.7
2020-06-30T06:58:03,42.805,6.029,-0.053,-0.001,-0.019,105.0,105.0,101.0,13.3,1505.3,327.1,-0.7,1.9,2470.313,13.33,0.053,268.9
2020-06-30T07:04:03,42.805,6.029,-0.052,0.009,-0.001,104.0,108.0,102.0,13.4,1505.3,325.8,-0.8,1.8,2470.301,13.31,0.052,279.8
2020-06-30T07:07:03,42.805,6.029,-0.026,-0.011,0.002,104.0,107.0,100.0,13.4,1505.3,323.7,-0.8,1.8,2470.319,13.31,0.028,247.1
2020-06-30T07:10:03,42.805,6.029,-0.055,0.014,0.01,104.0,105.0,101.0,13.4,1505.3,326.8,-0.7,1.8,2470.263,13.32,0.056,284.3
2020-06-30T07:13:03,42.805,6.029,-0.047,0.004,0.001,104.0,105.0,101.0,13.4,1505.3,327.9,-0.7,1.8,2470.321,13.32,0.047,274.9
2020-06-30T07:16:03,42.805,6.029,-0.044,0.001,-0.01,104.0,106.0,102.0,13.4,1505.3,324.1,-0.7,1.8,2470.292,13.32,0.044,271.3
2020-06-30T07:19:03,42.805,6.029,-0.061,0.007,-0.007,105.0,106.0,101.0,13.3,1505.3,325.0,-0.7,1.9,2470.296,13.33,0.061,276.5
2020-06-30T07:22:03,42.805,6.029,-0.056,-0.002,-0.008,104.0,106.0,103.0,13.3,1505.3,327.7,-0.7,1.8,2470.333,13.33,0.056,268.0
2020-06-30T07:25:03,42.805,6.029,-0.055,-0.006,-0.008,104.0,106.0,102.0,13.3,1505.3,324.9,-0.7,1.8,2470.284,13.33,0.055,263.8
2020-06-30T07:28:03,42.805,6.029,-0.063,0.003,-0.022,104.0,107.0,101.0,13.4,1505.3,324.4,-0.7,1.8,2470.268,13.33,0.063,272.7
2020-06-30T07:31:03,42.805,6.029,-0.074,0.004,-0.037,103.0,106.0,101.0,13.4,1505.3,326.4,-0.7,1.8,2470.266,13.33,0.074,273.1
2020-06-30T07:34:03,42.805,6.029,-0.08,0.016,0.01,103.0,106.0,102.0,13.3,1505.3,326.6,-0.7,1.8,2470.273,13.33,0.081,281.3
2020-06-30T07:37:03,42.805,6.029,-0.045,-0.005,0.001,104.0,106.0,102.0,13.4,1505.3,324.6,-0.7,1.8,2470.259,13.33,0.045,263.7
2020-06-30T07:40:03,42.805,6.029,-0.082,0.006,-0.016,103.0,105.0,102.0,13.4,1505.3,325.3,-0.7,1.8,2470.28,13.33,0.082,274.2
2020-06-30T07:43:03,42.805,6.029,-0.032,0.022,0.006,105.0,106.0,101.0,13.4,1505.3,323.1,-0.7,1.8,2470.277,13.33,0.038,304.5
2020-06-30T07:46:03,42.805,6.029,-0.046,0.001,-0.016,104.0,106.0,102.0,13.3,1505.3,326.4,-0.7,1.8,2470.281,13.33,0.046,271.2
2020-06-30T07:49:03,42.805,6.029,-0.047,-0.019,0.0,104.0,106.0,101.0,13.4,1505.3,326.9,-0.7,1.8,2470.255,13.33,0.05,248.0
2020-06-30T07:52:03,42.805,6.029,-0.032,-0.001,0.009,103.0,108.0,101.0,13.4,1505.3,323.1,-0.7,1.8,2470.237,13.33,0.032,268.2
2020-06-30T07:55:03,42.805,6.029,-0.04,0.013,-0.017,104.0,107.0,101.0,13.4,1505.3,325.6,-0.7,1.8,2470.24,13.33,0.042,288.0
2020-06-30T07:58:03,42.805,6.029,-0.07,0.013,-0.017,103.0,107.0,102.0,13.3,1505.3,325.9,-0.7,1.8,2470.205,13.33,0.071,280.5
2020-06-30T08:04:03,42.805,6.029,-0.052,-0.001,-0.031,104.0,107.0,102.0,13.4,1505.3,325.3,-0.7,1.8,2470.293,13.31,0.052,268.9
2020-06-30T08:07:03,42.805,6.029,-0.042,0.015,0.002,103.0,108.0,102.0,13.4,1505.3,326.7,-0.7,1.8,2470.325,13.31,0.044,289.6
2020-06-30T08:10:03,42.805,6.029,-0.023,-0.004,-0.016,105.0,107.0,102.0,13.3,1505.3,326.0,-0.7,1.8,2470.286,13.32,0.023,260.1
2020-06-30T08:13:03,42.805,6.029,-0.04,0.004,0.017,105.0,105.0,101.0,13.4,1505.3,328.4,-0.7,1.8,2470.3,13.32,0.04,275.7
2020-06-30T08:16:03,42.805,6.029,-0.075,0.011,-0.028,104.0,107.0,101.0,13.4,1505.3,323.5,-0.7,1.9,2470.227,13.33,0.075,278.3
2020-06-30T08:19:03,42.805,6.029,-0.043,0.014,0.018,103.0,106.0,101.0,13.3,1505.3,327.1,-0.7,1.8,2470.27,13.33,0.045,288.0
2020-06-30T08:22:03,42.805,6.029,-0.066,0.017,-0.028,104.0,106.0,102.0,13.4,1505.3,327.0,-0.7,1.9,2470.24,13.33,0.068,284.4
2020-06-30T08:25:03,42.805,6.029,-0.044,-0.002,0.001,104.0,107.0,101.0,13.4,1505.3,327.0,-0.7,1.8,2470.237,13.33,0.044,267.4
2020-06-30T08:28:03,42.805,6.029,-0.045,0.013,-0.003,105.0,107.0,102.0,13.4,1505.3,325.7,-0.7,1.8,2470.249,13.33,0.046,286.1
2020-06-30T08:31:03,42.805,6.029,-0.058,0.001,-0.016,104.0,106.0,101.0,13.4,1505.3,324.6,-0.7,1.9,2470.208,13.33,0.058,271.0
2020-06-30T08:34:03,42.805,6.029,-0.069,0.008,-0.028,104.0,107.0,102.0,13.4,1505.3,326.4,-0.7,1.8,2470.212,13.33,0.069,276.6
2020-06-30T08:37:03,42.805,6.029,-0.047,0.014,0.025,103.0,107.0,102.0,13.4,1505.3,322.8,-0.7,1.8,2470.263,13.33,0.049,286.6
2020-06-30T08:40:03,42.805,6.029,-0.049,0.0,-0.016,104.0,108.0,103.0,13.4,1505.3,326.2,-0.7,1.9,2470.283,13.33,0.049,270.0
2020-06-30T08:43:03,42.805,6.029,-0.041,0.001,0.0,105.0,107.0,101.0,13.4,1505.3,327.8,-0.7,1.8,2470.244,13.33,0.041,271.4
2020-06-30T08:46:03,42.805,6.029,-0.047,0.007,0.02,104.0,108.0,102.0,13.4,1505.3,325.8,-0.7,1.8,2470.221,13.33,0.047,278.5
2020-06-30T08:49:03,42.805,6.029,-0.066,0.005,-0.008,105.0,107.0,101.0,13.4,1505.3,325.6,-0.7,1.8,2470.227,13.33,0.066,274.3
2020-06-30T08:52:03,42.805,6.029,-0.092,0.032,-0.032,104.0,106.0,102.0,13.4,1505.3,323.2,-0.7,1.8,2470.212,13.33,0.097,289.2
2020-06-30T08:55:03,42.805,6.029,-0.041,0.003,-0.006,105.0,107.0,102.0,13.4,1505.3,325.6,-0.7,1.8,2470.194,13.33,0.041,274.2
2020-06-30T08:58:03,42.805,6.029,-0.078,0.005,-0.05,104.0,108.0,100.0,13.3,1505.3,327.3,-0.7,1.8,2470.268,13.33,0.078,273.7
2020-06-30T09:04:03,42.805,6.029,-0.053,0.018,0.027,104.0,108.0,101.0,13.4,1505.3,326.9,-0.8,1.8,2470.272,13.31,0.055,288.8
2020-06-30T09:07:03,42.805,6.029,-0.045,0.021,0.006,103.0,107.0,101.0,13.4,1505.3,323.2,-0.7,1.8,2470.259,13.31,0.049,295.0
2020-06-30T09:10:03,42.805,6.029,-0.078,-0.013,-0.02,105.0,106.0,101.0,13.3,1505.3,324.3,-0.7,1.8,2470.272,13.32,0.079,260.5
2020-06-30T09:13:03,42.805,6.029,-0.069,0.029,0.004,105.0,107.0,101.0,13.4,1505.3,325.5,-0.7,1.8,2470.202,13.32,0.074,292.8
2020-06-30T09:16:03,42.805,6.029,-0.045,0.007,0.033,104.0,108.0,102.0,13.3,1505.3,325.4,-0.7,1.8,2470.27,13.32,0.045,278.8
2020-06-30T09:19:03,42.805,6.029,-0.053,0.003,-0.024,104.0,107.0,103.0,13.4,1505.3,327.1,-0.7,1.8,2470.272,13.33,0.053,273.2
2020-06-30T09:22:03,42.805,6.029,-0.033,-0.009,0.021,104.0,108.0,102.0,13.4,1505.3,325.9,-0.7,1.8,2470.241,13.33,0.034,254.7
2020-06-30T09:25:03,42.805,6.029,-0.051,0.006,0.007,106.0,108.0,102.0,13.4,1505.3,326.0,-0.7,1.8,2470.239,13.33,0.051,276.7
2020-06-30T09:28:03,42.805,6.029,-0.044,-0.003,-0.041,102.0,106.0,103.0,13.4,1505.3,324.9,-0.7,1.9,2470.164,13.33,0.044,266.1
2020-06-30T09:31:03,42.805,6.029,-0.059,-0.007,0.019,103.0,106.0,101.0,13.4,1505.3,324.7,-0.7,1.8,2470.242,13.33,0.059,263.2
2020-06-30T09:34:03,42.805,6.029,-0.055,0.013,-0.013,105.0,107.0,101.0,13.4,1505.3,327.8,-0.7,1.8,2470.217,13.33,0.056,283.3
2020-06-30T09:37:03,42.805,6.029,-0.054,0.023,0.001,103.0,108.0,102.0,13.4,1505.3,326.4,-0.7,1.8,2470.246,13.33,0.058,293.1
2020-06-30T09:40:03,42.805,6.029,-0.063,0.015,0.019,104.0,107.0,102.0,13.4,1505.3,324.5,-0.7,1.9,2470.194,13.33,0.064,283.4
2020-06-30T09:43:03,42.805,6.029,-0.061,0.008,-0.031,105.0,106.0,102.0,13.3,1505.3,324.4,-0.7,1.8,2470.218,13.33,0.061,277.5
2020-06-30T09:46:03,42.805,6.029,-0.04,0.005,0.033,103.0,108.0,102.0,13.4,1505.3,326.4,-0.7,1.8,2470.217,13.33,0.04,277.1
2020-06-30T09:49:03,42.805,6.029,-0.03,0.007,0.031,104.0,108.0,103.0,13.3,1505.3,324.6,-0.7,1.8,2470.221,13.33,0.03,283.1
2020-06-30T09:52:03,42.805,6.029,-0.038,0.003,-0.037,105.0,108.0,101.0,13.4,1505.3,326.6,-0.7,1.9,2470.236,13.33,0.038,274.5
2020-06-30T09:55:03,42.805,6.029,-0.043,0.017,-0.012,105.0,108.0,101.0,13.3,1505.3,328.2,-0.7,1.8,2470.233,13.33,0.046,291.6